Powrót do katalogu

STARLINK-37066

AktywnyŁącznośćVLEO
NORAD 68081·PAYLOAD·🇺🇸 United States

Wystrzelony Mar 4, 2026 z Vandenberg Space Force Base

Loading…

Następne Przeloty (najbliższe 24 godziny)

TLE

ŚwieżeSource: CelesTrak SupGP

Epoka: Sep 15, 2026, 02:47 UTC

1 68081C 26042N   26258.11645833  .00047978  00000+0  14177-2 0  2585
2 68081  53.1595  13.1647 0001054  94.4091  35.4607 15.34363510    19

Śledź STARLINK-37066 w czasie rzeczywistym z AllMySat

Download on the App Store